Location: Melque
(41.0517°N, 4.4694°W)
Time: 20:03:17
(UTC+00:00)

Meteor 2-20 - Pass Details

Date: 17 March 2026
Orbit: 939 x 958 km, 82.5° (Epoch: 11 April)

Event Time Altitude Azimuth Distance (km) Brightness Sun altitude
Rises 05:29:54 0° 137° (SE) 3,609 8.0 -11.5°
Reaches altitude 10° 05:33:22 10° 117° (ESE) 2,673 7.7 -10.8°
Maximum altitude 05:36:55 16° 81° (E) 2,260 7.8 -10.2°
Drops below altitude 10° 05:40:29 10° 46° (NE) 2,690 7.7 -9.5°
Sets 05:43:59 0° 26° (NNE) 3,643 8.0 -8.8°
